Probability
0 0 0 0 0 0 0 0 0 0 1 2 2 1 1 2 2 2 2 6 12 15 15 13 10 10 11 14 16 16 14 13 13 15 17 20 21 21 22 22 21 21 21 21
0 0 0 0 0 0 0 0 0 0 2 5 5 3 3 5 6 5 6 10 15 17 17 17 16 13 13 16 21 23 21 19 18 18 20 22 23 25 26 25 24 25 26 26
0 0 0 0 1 1 0 0 1 2 6 9 9 8 8 10 12 11 11 15 19 19 19 20 20 17 15 18 24 27 26 25 24 23 23 23 23 26 29 29 29 31 31 30
0 0 0 1 3 4 2 1 2 5 9 10 10 10 12 15 18 17 16 18 21 20 20 21 20 17 16 18 22 24 24 23 24 25 24 22 22 25 30 34 34 34 32 31
0 0 0 1 3 5 4 3 4 5 8 8 7 8 11 16 20 21 20 21 22 22 22 22 22 21 19 19 20 20 20 19 20 21 20 20 23 27 33 37 38 36 33 32
0 0 1 1 2 3 3 4 5 6 8 9 9 10 12 14 16 18 21 23 23 23 23 24 26 26 24 22 20 20 19 18 18 18 17 19 23 29 33 35 34 33 31 30
0 0 1 2 2 2 4 7 10 11 11 12 13 15 14 11 10 12 16 18 21 23 24 25 27 26 24 21 19 18 18 17 17 18 17 17 21 26 28 27 25 24 23 22
1 1 2 2 2 3 6 9 13 15 13 11 13 14 13 10 9 10 12 14 17 21 23 24 25 24 22 20 18 16 16 17 16 16 15 14 16 20 20 18 15 13 13 13
2 2 3 2 1 2 5 8 10 10 8 7 8 10 11 11 11 13 15 15 17 19 20 20 19 20 20 19 16 14 15 15 13 11 10 11 12 14 12 10 8 6 5 5
2 1 1 1 1 2 4 6 5 4 3 5 6 6 8 9 10 12 14 16 16 17 16 14 12 12 13 14 13 13 13 10 7 6 7 9 9 8 6 5 4 3 3 3
1 0 0 0 2 3 3 4 3 2 3 4 5 4 4 5 5 6 7 9 10 10 10 8 6 6 8 10 11 12 11 7 4 3 5 6 4 3 2 2 2 2 2 2
0 0 0 0 1 1 2 2 2 2 3 4 4 3 3 2 1 1 1 2 2 3 3 3 3 4 7 9 11 12 10 8 5 3 4 4 2 0 0 1 1 1 0 1
0 0 0 0 0 0 0 1 2 2 2 2 2 2 2 2 1 0 0 0 0 0 0 0 1 2 4 6 7 8 7 6 5 4 4 3 1 0 0 0 0 0 0 0
0 0 0 0 0 0 0 1 1 1 1 1 1 1 1 1 0 0 0 0 0 0 0 0 0 0 1 2 2 3 2 2 2 2 2 1 0 0 0 0 0 0 0 0
0 0 0 0 0 0 0 0 0 0 0 0 0 0 0 0 0 0 0 0 0 0 0 0 0 0 0 0 0 0 0 0 0 0 0 0 0 0 0 0 0 0 0 0
0 0 0 0 0 0 0 0 0 0 0 0 0 0 0 0 0 0 0 0 0 0 0 0 0 0 0 0 0 0 0 0 0 0 0 0 0 0 0 0 0 0 0 0
0 0 0 0 0 0 0 0 0 0 0 0 0 0 0 0 0 0 0 0 0 0 0 0 0 0 0 0 0 0 0 0 0 0 0 0 0 0 0 0 0 0 0 0
0 0 0 0 0 0 0 0 0 0 0 0 0 0 0 0 0 0 0 0 0 0 0 0 0 0 0 0 0 0 0 0 0 0 0 0 0 0 0 0 0 0 0 0
0 0 0 0 0 0 0 0 0 0 0 0 0 0 0 0 0 0 0 0 0 0 0 0 0 0 0 0 0 0 0 0 0 0 0 0 0 0 0 0 0 0 0 0
0 0 0 0 0 0 0 0 0 0 0 0 0 0 0 0 0 0 0 0 0 0 0 0 0 0 0 0 0 0 0 0 0 0 0 0 0 0 0 0 0 0 0 0
0 0 0 0 0 0 0 0 0 0 0 0 0 0 0 0 0 0 0 0 0 0 0 0 0 0 0 0 0 0 0 0 0 0 0 0 0 0 0 0 0 0 0 0
0 0 0 0 0 0 0 0 0 0 0 0 0 0 0 0 0 0 0 0 0 0 0 0 0 0 0 0 0 0 0 0 0 0 0 0 0 0 0 0 0 0 0 0
0 0 0 0 0 0 0 0 0 0 0 0 0 0 0 0 0 0 0 0 0 0 0 0 0 0 0 0 0 0 0 0 0 0 0 0 0 0 0 0 0 0 0 0
0 0 0 0 0 0 0 0 0 0 0 0 0 0 0 0 0 0 0 0 0 0 0 0 0 0 0 0 0 0 0 0 0 0 0 0 0 0 0 0 0 0 0 0
0 0 0 0 0 0 0 0 0 0 0 0 0 0 0 0 0 0 0 0 0 0 0 0 0 0 0 0 0 0 0 0 0 0 0 0 0 0 0 0 0 0 0 0
0 0 0 0 0 0 0 0 0 0 0 0 0 0 0 0 0 0 0 0 0 0 0 0 0 0 0 0 0 0 0 0 0 0 0 0 0 0 0 0 0 0 0 0
0 0 0 0 0 0 0 0 0 0 0 0 0 0 0 0 0 0 0 0 0 0 0 0 0 0 0 0 0 0 0 0 0 0 0 0 0 0 0 0 0 0 0 0
Wind_Speed
10 7 8 10 12 12 14 15 15 12 11 6 3 3 1 3 6 8 9 10 11 11 10 11 10 10 10 9 9 10 10 10 10 10 10 9 9 9 8 8 9 9 9 9
10 10 11 13 13 14 15 15 16 15 12 4 3 2 1 2 6 8 9 10 10 11 11 11 10 10 10 9 9 9 10 9 9 9 9 9 9 8 8 8 8 8 9 9
11 9 11 15 13 14 14 13 14 15 10 5 4 3 1 1 4 6 8 9 10 10 10 10 10 10 10 9 9 9 8 8 8 9 9 9 9 9 9 9 9 8 8 8
9 8 14 5 2 6 10 12 11 10 6 4 3 2 2 1 1 3 5 6 7 8 9 9 9 9 9 9 9 9 8 8 8 8 8 8 8 8 8 7 8 8 8 8
8 11 11 6 2 4 8 9 5 5 5 3 1 3 3 4 3 3 4 5 5 6 8 8 9 9 9 9 8 8 7 7 6 6 7 7 7 7 7 6 6 7 7 7
9 10 10 1 2 4 7 8 2 3 3 2 4 5 3 5 5 5 5 5 6 6 7 7 7 9 9 9 8 7 6 5 5 5 5 5 5 5 4 5 5 5 4 4
11 11 7 3 4 5 8 1 6 5 3 3 2 3 5 6 6 6 7 7 7 8 7 6 7 8 8 8 6 6 6 6 5 4 4 4 3 3 3 3 3 2 2 1
7 9 5 4 4 4 6 7 5 5 3 3 5 7 7 7 8 8 8 9 9 9 9 8 8 9 9 7 7 7 6 6 6 5 4 4 4 3 3 2 3 2 2 2
4 3 4 5 5 6 5 5 4 2 2 5 7 8 9 9 9 9 10 10 10 11 11 10 10 9 10 8 7 8 8 8 7 6 5 4 4 4 3 2 2 2 1 1
5 4 3 5 5 4 4 3 1 1 3 6 9 11 11 10 10 10 10 11 11 12 12 12 11 11 9 8 8 9 9 8 7 7 6 6 3 3 3 2 2 1 1 0
6 3 3 3 5 5 4 3 3 4 6 9 13 13 12 11 11 10 10 11 11 12 13 12 11 11 10 9 9 10 9 8 7 7 6 6 6 6 5 5 4 2 2 1
3 3 2 3 5 5 4 5 8 11 12 12 13 14 13 12 11 11 12 11 12 13 13 12 12 11 10 8 8 8 7 6 6 5 5 5 5 6 8 6 6 6 6 4
2 3 4 4 5 6 8 9 11 13 14 14 13 13 14 13 12 12 13 13 13 12 12 12 12 11 10 10 9 9 8 7 5 5 5 4 4 3 3 4 4 4 4 3
2 2 4 5 6 8 11 13 13 15 14 13 13 13 14 14 13 13 12 12 12 12 12 12 12 11 10 9 9 9 8 7 6 5 5 4 4 3 2 2 1 2 4 4
3 4 6 8 9 10 11 13 14 14 14 14 13 13 14 13 13 12 11 11 12 12 12 12 11 10 8 8 8 8 7 6 5 4 4 3 3 3 3 3 3 3 1 3
7 8 9 11 12 12 12 13 13 14 14 14 14 13 13 13 12 12 11 11 11 12 10 10 10 9 8 8 7 6 6 7 5 3 3 3 3 3 3 3 3 3 4 4
9 10 11 12 13 13 13 13 13 13 13 13 13 13 13 13 12 11 11 11 11 10 10 9 8 8 8 7 6 4 4 4 2 3 4 4 4 4 3 4 4 4 4 4
9 11 11 12 13 14 14 14 13 13 13 13 12 12 12 11 11 10 9 9 10 10 9 8 8 7 7 7 6 4 3 3 4 4 4 4 5 4 4 4 5 5 5 3
12 13 13 13 13 13 14 13 13 12 12 11 12 11 11 10 9 8 8 7 7 8 7 7 6 5 7 7 6 3 4 4 4 4 4 3 4 4 5 5 6 6 6 6
14 14 14 14 14 13 13 12 12 11 10 11 11 11 10 9 8 7 7 7 7 7 6 6 5 6 6 7 7 4 5 5 5 5 5 5 5 5 5 6 6 6 6 6
14 14 14 14 13 13 12 12 11 11 10 10 9 9 8 7 6 5 5 6 7 6 4 3 4 5 6 6 5 5 5 5 5 5 5 5 5 6 6 6 7 7 7 7
12 12 13 13 12 11 10 10 10 10 9 9 8 8 7 6 6 6 7 5 5 4 3 4 6 7 8 8 5 5 6 6 5 5 5 5 6 6 6 7 7 7 7 7
11 11 12 12 11 11 11 10 10 9 8 8 7 6 6 5 4 4 5 5 5 5 4 6 7 8 10 5 4 5 5 6 6 5 5 5 5 6 6 7 6 7 7 7
10 11 11 10 10 10 10 9 9 8 8 8 7 6 4 4 5 5 6 6 5 4 5 7 6 7 7 4 5 5 5 5 5 5 5 5 5 5 5 6 6 6 7 8
9 10 10 9 8 8 9 9 9 8 7 6 7 6 5 5 5 5 5 6 5 3 4 5 3 6 4 5 5 5 5 6 6 6 6 6 6 6 6 6 6 7 7 7
8 8 7 7 6 5 5 5 5 5 5 5 5 5 5 5 5 4 3 4 5 4 4 4 4 3 5 5 5 5 5 5 4 5 6 6 6 6 6 7 8 7 6 7
8 7 6 6 6 5 5 5 5 5 4 4 5 4 4 4 4 4 4 4 4 4 4 4 5 5 5 5 5 5 5 5 5 5 5 5 5 5 6 7 6 6 6 6
Wind_Direction
267 278 264 253 246 236 241 253 264 268 267 270 275 297 280 196 176 174 173 175 176 175 172 173 173 175 179 180 179 179 180 183 184 187 189 190 190 192 192 196 199 201 206 208
253 254 255 256 252 249 247 252 257 263 267 278 282 296 265 197 183 180 177 176 175 174 171 173 174 175 175 176 175 177 181 183 180 181 182 184 186 187 189 196 201 200 204 207
255 249 257 249 246 248 248 247 253 256 263 255 265 274 288 187 188 181 175 173 172 172 171 172 173 172 172 171 169 171 175 178 176 177 179 183 185 187 190 192 195 200 205 208
259 251 247 255 296 270 266 261 262 265 268 272 291 27 40 26 175 164 163 162 164 165 165 166 165 165 167 165 166 168 171 174 175 177 178 181 185 188 191 192 194 198 202 208
251 249 255 240 262 289 274 264 272 268 258 258 153 169 123 65 64 97 118 129 139 149 152 155 158 158 156 156 158 160 163 165 169 173 176 180 185 189 189 191 195 202 204 209
244 254 255 245 38 327 271 246 8 327 279 239 218 234 123 85 79 85 94 103 113 121 129 137 147 149 147 146 148 150 150 147 147 155 164 171 177 181 180 189 198 201 201 206
245 249 257 9 349 276 247 332 8 337 300 259 273 30 81 93 88 89 92 95 99 102 106 112 125 132 133 131 132 132 129 127 126 132 136 138 146 159 170 179 177 179 164 157
239 244 242 28 321 303 338 345 334 338 357 53 77 94 97 96 94 92 93 94 93 92 89 91 103 113 112 111 115 117 114 110 108 108 110 115 120 121 133 149 148 142 148 168
269 286 15 357 332 328 318 311 323 354 63 109 112 110 104 99 95 91 91 92 91 92 89 85 86 93 97 96 101 105 103 99 97 97 92 93 108 117 123 129 136 147 169 186
263 268 330 345 344 340 338 330 344 79 118 124 119 112 107 100 94 90 88 89 90 89 87 84 84 86 89 93 96 96 96 95 94 92 90 79 62 69 76 78 98 131 148 162
263 295 322 5 3 1 5 27 65 92 105 111 111 108 104 98 92 88 84 83 84 85 84 81 80 80 81 85 90 92 91 91 90 86 82 79 70 47 42 49 35 17 27 35
302 10 355 356 2 9 53 80 94 98 91 91 98 100 98 94 91 90 87 86 84 82 81 79 76 75 75 79 84 89 90 85 85 86 86 88 94 88 59 59 69 61 42 25
354 32 49 57 53 67 80 88 93 97 98 97 94 97 98 96 93 91 89 87 86 84 81 79 76 71 68 71 75 75 76 73 73 73 78 78 78 83 97 103 101 96 91 76
78 90 91 79 79 81 89 93 94 95 95 95 97 96 95 94 90 87 86 87 87 86 84 80 75 68 65 68 70 71 73 71 62 63 58 55 51 45 41 35 80 120 140 149
102 108 108 106 97 94 99 102 104 104 104 103 102 100 99 97 94 92 90 89 87 83 79 76 71 63 58 63 65 62 60 59 50 47 47 44 33 24 24 16 357 348 359 144
112 111 113 110 107 105 105 106 107 108 109 108 105 102 102 102 99 96 92 89 86 81 75 71 66 57 52 55 63 69 66 55 30 24 29 30 23 10 3 354 341 338 342 352
126 123 119 116 114 111 109 107 107 108 107 104 104 105 105 102 98 94 91 88 84 80 73 67 61 54 47 39 33 43 51 62 32 11 28 18 7 358 352 341 339 336 337 22
118 118 120 120 118 115 111 109 108 107 106 108 108 106 105 103 100 97 95 94 89 78 65 58 50 47 45 37 20 10 17 21 17 16 13 7 352 338 336 336 334 331 329 339
110 111 111 112 113 113 111 110 107 106 108 110 108 105 102 100 99 97 92 88 84 79 64 54 36 36 43 31 358 0 4 6 7 7 359 354 325 339 341 335 335 335 333 333
110 110 110 111 112 111 111 111 109 107 108 110 109 106 103 100 98 95 90 77 59 56 56 39 31 35 33 26 347 1 7 5 4 1 355 352 352 349 345 343 341 341 337 334
113 113 112 109 106 105 106 108 109 107 105 105 105 104 102 98 92 87 83 83 69 46 46 52 36 33 27 3 333 1 9 7 3 2 2 358 356 352 351 348 344 341 339 337
109 110 109 108 106 104 104 105 107 107 106 104 103 103 103 99 94 86 72 61 65 29 12 42 44 32 359 332 357 10 10 7 5 4 3 359 354 351 351 347 344 342 341 338
104 106 107 106 105 105 103 102 102 101 102 101 98 93 85 73 66 74 78 60 52 36 29 44 33 7 333 335 6 11 10 6 2 359 360 357 355 351 347 347 347 344 343 341
103 104 103 105 107 107 104 102 101 100 99 96 91 86 88 92 81 67 70 78 51 31 49 57 28 352 325 358 13 12 9 3 358 355 354 354 356 354 350 347 345 344 342 340
107 109 111 114 112 108 110 112 109 106 100 93 91 85 71 63 67 64 61 65 63 40 62 75 42 343 352 18 15 10 9 9 358 349 355 356 355 356 354 350 349 346 345 345
103 101 97 92 92 103 107 102 96 91 90 89 82 75 73 73 75 73 70 69 63 49 41 44 36 14 21 20 15 10 7 7 3 4 6 2 1 1 359 354 350 349 349 348
109 107 108 103 97 89 86 85 83 80 78 79 81 78 75 70 66 62 59 57 56 51 46 39 33 28 24 20 18 16 14 14 12 10 10 9 7 3 358 351 349 351 350 349